DECAYED

ELECTRON R/B, 56755 (Decayed)

Orbit data source: Space-Track

ELECTRON R/B, 56755 was space debris in LEO originally from a launch on Fri, 26 May 2023 UTC launched from the Rocket Lab Launch Complex (RLLC). Debris objects in space refer to the collection of defunct objects orbiting the Earth. Examples of debris include non-operational satellites, rocket bodies, and fragments generated from explosions, collisions, or faulty payload assembly.

Not visible in the next 10 days
Identifier
56755, 2023-073D
Orbit
Decayed
Country
Flag of USUS
Related business
Manufacturer
Rocket Lab
Mission
Decayed spacecraft
Bus & Motor
ELECTRON ST2, Unknown motor
Mass
250 kg wet, ~250 kg dry
Launch date (UTC)
2023-05-26 (3 years ago)
Launch vehicle
Unknown
Launch site
Rocket Lab Launch Complex (RLLC)
Object type
Payload
Rocket body
Debris
Shape & HBR
Cyl, Unknown HBR
Radar Cross Section
2.827 m², Large (>1 m²)

Expand to show TLE details & history
Last TLE update: 1 year ago

TLE from 1 year ago
0 ELECTRON R/B
1 56755U 23073D   25134.83402661  .04905803  19132-5  12008-2 0  9991
2 56755  35.4222 355.4901 0013731 295.0929 159.6376 16.27863882110107
Epoch: 2025-05-14T20:00Z
TLE epoch observation values (Epoch: 2025-05-14T20:00:59.899Z)
Latitude
35.43527°
Longitude
-81.70131°
Altitude
207.375 km
Speed
7.783 km/s
True Right ascension
06h 05m 26s
True Declination
35° 15' 34"
Sunlit
Object was in daylight at epoch
Visualization orbit readout
Latitude
Unknown
Longitude
Unknown
Altitude
Unknown
Speed
Unknown
Apparent Right ascension
Unknown
Apparent Declination
Unknown
Sunlit
N/A
Visualization observer readout
Local Sidereal Time
00:29:40
Azimuth
Unknown
Elevation
Unknown
Doppler factor
Unknown
Orbital elements
Apogee altitude
210.649 km
Perigee altitude
192.58 km
Semi-major axis
6,579.751 km
Eccentricity
0.00137
Inclination
35.4222°
RAAN
355.4901°
Arg. of periapsis
295.0929°
True anomaly
159.69226°
Mean anomaly
159.6376°
Eccentric anomaly
159.66494°
Mean motion
4.06658 °/min
Orbital period
88.53 mins
BSTAR
0.0012008
Loading maneuver chart data...
Computing Atmospheric mass density...
Loading historical data...
Loading historical data...
Loading historical data...
Loading historical data...
Loading historical data...
Loading historical data...
Loading historical data...
Other satellites on launch #73 in the year 2023 (2023-05-26 UTC)

Documentation

Showing up to 5 results
|